• MPC Preparation (Info)

  • MPEC 2023-M158 : 2023 MO5

    The following Minor Planet Electronic Circular may be linked-to from your own Web pages, but must not otherwise be redistributed electronically.

    A form allowing access to any MPEC is at the bottom of this page.


    Read MPEC 2023-M157 Read MPEC 2023-M159


    M.P.E.C. 2023-M158                                Issued 2023 June 28, 14:25 UT
    
         The Minor Planet Electronic Circulars contain information on unusual
             minor planets, routine data on comets and natural satellites,
             and occasional editorial announcements.  They are published
        on behalf of Division F of the International Astronomical Union by the
              Minor Planet Center, Smithsonian Astrophysical Observatory,
                              Cambridge, MA 02138, U.S.A.
    			  
                 Prepared using the Tamkin Foundation Computer Network
    
                                  MPC@CFA.HARVARD.EDU
                URL https://www.minorplanetcenter.net/    ISSN 1523-6714
    
                                    2023 MO5                                 
    
    
    Observations:
         K23M05O*1C2023 06 27.43298018 00 03.110+50 16 15.89         19.43GVEM158G96
         K23M05O 1C2023 06 27.43878418 00 25.657+50 16 01.56         19.53GVEM158G96
         K23M05O 1C2023 06 27.44459018 00 48.056+50 15 46.91         19.78GVEM158G96
         K23M05O KC2023 06 27.46046518 01 49.541+50 15 02.09         19.56GVEM158I52
         K23M05O KC2023 06 27.46129818 01 52.752+50 15 00.43         19.23GVEM158I52
         K23M05O KC2023 06 27.46172418 01 54.325+50 14 58.42         19.12GVEM158I52
         K23M05O 1C2023 06 27.50056718 04 57.308+50 21 28.20         19.55GVEM158T12
         K23M05O 1C2023 06 27.50082718 04 58.192+50 21 27.65         19.62GVEM158T12
         K23M05O 1C2023 06 27.50147718 05 00.500+50 21 26.19         19.86GVEM158T12
         K23M05O KC2023 06 28.07813 18 35 32.06 +49 58 52.8          19.6 VZEM158C95
         K23M05O KC2023 06 28.08182 18 35 40.29 +49 58 38.3          19.9 VZEM158C95
         K23M05O KC2023 06 28.10495 18 36 31.73 +49 57 03.9                ZEM158C95
         K23M05O mC2023 06 28.18439518 41 01.867+49 54 38.52         19.91GVEM158I52
         K23M05O mC2023 06 28.18479818 41 02.724+49 54 38.30         20.38GVEM158I52
         K23M05O mC2023 06 28.18520118 41 03.548+49 54 37.66         20.53GVEM158I52
         K23M05O mC2023 06 28.18560418 41 04.398+49 54 37.30         19.79GVEM158I52
         K23M05O  C2023 06 28.25150 18 43 13.77 +49 52 50.1                VEM158G37
         K23M05O  C2023 06 28.25183 18 43 14.43 +49 52 49.5                VEM158G37
         K23M05O  C2023 06 28.25281 18 43 16.33 +49 52 47.6                VEM158G37
    
    Observer details:
    C95 SATINO Remote Observatory, Haute Provence.  Observer D. Husar.  0.30-m
        f/5.8 reflector + CCD.
    G37 Lowell Discovery Telescope.  Observers K. Grimstrup, M. West, A. Thirouin.
        4.3m LDT + LMI.
    G96 Mt. Lemmon Survey.  Observer K. W. Wierzchos.  Measurers E. J.
        Christensen, D. Fay, J. B. Fazekas, D. C. Fuls, A. R. Gibbs, A. D. Grauer,
        H. Groeller, J. K. Hogan, R. A. Kowalski, S. M. Larson, G. J. Leonard, D.
        Rankin, R. L. Seaman, A. Serrano, F. C. Shelly, K. W. Wierzchos.  1.5-m
        reflector + 10K CCD.
    I52 Steward Observatory, Mt. Lemmon Station.  Observer J. K. Hogan.  Measurers
        E. J. Christensen, D. Fay, J. B. Fazekas, D. C. Fuls, A. R. Gibbs, A. D.
        Grauer, H. Groeller, J. K. Hogan, R. A. Kowalski, S. M. Larson, G. J.
        Leonard, D. Rankin, R. L. Seaman, A. Serrano, F. C. Shelly, K. W.
        Wierzchos.  1.0-m prime focus + CCD.
    T12 University of Hawaii 88-inch telescope, Maunakea.  Observer J. Fairlamb.
        Measurers R. Weryk, J. Fairlamb, Y. Ramanjooloo, R. Wainscoat.  2.24-m
        University of Hawaii reflector + CCD.
    
    Orbital elements:
    2023 MO5                                                 Earth MOID = 0.0005 AU
    Epoch 2023 Feb. 25.0 TT = JDT 2460000.5                 Prema                   
    M 295.03723              (2000.0)            P               Q                  
    n   0.62483540     Peri.  342.40837     -0.24875170     +0.94609825             
    a   1.3550614      Node   272.79835     -0.86181030     -0.31393378             
    e   0.2571988      Incl.   11.98537     -0.44204706     +0.07964723             
    P   1.58           H   27.24          G   0.15           U   8                  
    Residuals in seconds of arc
    230627 G96  0.1-  0.3-    230627 T12  0.3-  0.5+    230628 I52  0.0   0.2-
    230627 G96  0.2+  0.3-    230627 T12  0.1+  0.5+    230628 I52  0.2+  0.2-
    230627 G96  0.7-  0.0     230628 C95  2.0-  0.2-    230628 G37  0.2-  0.1-
    230627 I52  0.5+  0.5-    230628 C95  2.1-  0.3-    230628 G37  0.2+  0.1-
    230627 I52  0.5+  0.3+    230628 C95  2.6-  0.4-    230628 G37  0.7+  0.3-
    230627 I52  0.2-  0.5-    230628 I52  0.2-  0.1+
    230627 T12  0.0   0.5+    230628 I52  0.0   0.2+
    
    Ephemeris:
    2023 MO5                 a,e,i = 1.36, 0.26, 12                  q = 1.0065
    Date    TT    R. A. (2000) Decl.     Delta      r    Elong.  Phase     V
    2023 05 29    08 21 55.5 -43 57 09   0.1191  1.0110    85.5    87.8    25.7
    ...
    2023 06 13    08 35 06.2 -43 22 56   0.05573 1.0072    79.9    97.0    24.5
    ...
    2023 06 21    09 08 14.8 -39 50 40   0.02052 1.0120    77.5   101.3    22.5
    ...
    2023 06 27    17 24 25.2 +49 49 51   0.0078121.0187   105.8    73.8    19.3
    2023 06 28    18 32 36.1 +50 01 52   0.01191 1.0200   106.6    72.7    20.2
    2023 06 29    19 04 43.6 +49 14 18   0.01621 1.0215   107.1    72.1    20.9
    ...
    2023 07 05    19 55 15.2 +46 36 02   0.04267 1.0315   109.2    68.6    22.9
    ...
    2023 07 13    20 07 22.6 +45 11 37   0.07779 1.0485   112.2    63.8    24.1
    ...
    2023 07 28    20 12 19.4 +42 26 36   0.1421  1.0901   118.3    55.1    25.2
    
    M. P. C. Staff               (C) Copyright 2023 MPC           M.P.E.C. 2023-M158
    


    Read MPEC 2023-M157 Read MPEC 2023-M159


    MPEC number:

    Enter an MPEC number in one of the following forms:

    • 1997-B01 (the full form)
    • J97B01 (the packed version of the full form)
    • B01 (the abbreviated form)